EW1033 Weather Reports


Display with metric or nautical units.
time (UTC)temp
F
wind
direction
speed
MPH
gust
MPH
rain 1hr
in
rain 24hr
in
rain mn
in
humidity
%
barometer
mb
20260507144514 65 0.0 0.0 0.00 0.00 0.00 44 1012.6
20260507143009 61 0.0 0.0 0.00 0.00 0.00 52 1012.8
20260507141506 59 0.0 0.0 0.00 0.00 0.00 58 1012.9
20260507140002 58 0.0 0.0 0.00 0.00 0.00 60 1012.8
20260507134502 57 0.0 0.0 0.00 0.00 0.00 59 1012.9
20260507133100 55 0.0 0.0 0.00 0.00 0.00 61 1012.7
20260507131602 52 0.0 0.0 0.00 0.00 0.00 69 1012.6
20260507130053 50 0.0 0.0 0.00 0.00 0.00 72 1012.5
20260507124551 49 0.0 0.0 0.00 0.00 0.00 76 1012.4
20260507123049 49 0.0 0.0 0.00 0.00 0.00 76 1012.4
20260507121547 49 0.0 0.0 0.00 0.00 0.00 75 1012.3
20260507120044 49 0.0 0.0 0.00 0.00 0.00 74 1012.4
20260507114543 50 0.0 0.0 0.00 0.00 0.00 73 1012.3
20260507113042 51 0.0 0.0 0.00 0.00 0.00 69 1012.4
20260507111544 52 0.0 0.0 0.00 0.00 0.00 66 1012.3
20260507110036 52 0.0 0.0 0.00 0.00 0.00 64 1012.3
20260507104535 52 0.0 0.0 0.00 0.00 0.00 66 1012.3
20260507103035 52 0.0 0.0 0.00 0.00 0.00 69 1012.2
20260507101552 52 0.0 0.0 0.00 0.00 0.00 69 1012.1
20260507100033 53 0.0 0.0 0.00 0.00 0.00 67 1012.2
20260507094525 53 0.0 0.0 0.00 0.00 0.00 66 1012.3
20260507093026 55 0.0 0.0 0.00 0.00 0.00 60 1012.3
20260507091544 57 0.0 0.0 0.00 0.00 0.00 50 1012.4
20260507090017 57 0.0 0.0 0.00 0.00 0.00 51 1012.4
20260507084517 57 0.0 0.0 0.00 0.00 0.00 52 1012.5
20260507083020 55 0.0 0.0 0.00 0.00 0.00 61 1012.6
20260507081514 55 0.0 0.0 0.00 0.00 0.00 62 1012.6
20260507080010 56 0.0 0.0 0.00 0.00 0.00 63 1012.5
20260507074510 56 0.0 0.0 0.00 0.00 0.00 60 1012.5
20260507073003 58 0.0 0.0 0.00 0.00 0.00 55 1012.5
20260507071601 60 0.0 0.0 0.00 0.00 0.00 47 1012.5
20260507070137 60 0.0 0.0 0.00 0.00 0.00 46 1012.5
20260507064555 60 0.0 0.0 0.00 0.00 0.00 50 1012.5
20260507063100 59 0.0 0.0 0.00 0.00 0.00 55 1012.4
20260507061554 59 0.0 0.0 0.00 0.00 0.00 54 1012.5
20260507060052 60 0.0 0.0 0.00 0.00 0.00 51 1012.3
20260507054556 61 0.0 0.0 0.00 0.00 0.00 48 1012.2
20260507053054 61 0.0 0.0 0.00 0.00 0.00 47 1012.1
20260507051552 61 0.0 0.0 0.00 0.00 0.00 49 1012.1
20260507050050 63 0.0 0.0 0.00 0.00 0.00 43 1012.0
20260507044550 63 0.0 0.0 0.00 0.00 0.00 41 1011.9
20260507043050 64 0.0 0.0 0.00 0.00 0.00 40 1011.9
20260507041550 64 0.0 0.0 0.00 0.00 0.00 37 1011.8
20260507040051 66 0.0 0.0 0.00 0.00 0.00 34 1011.6
20260507034550 67 0.0 0.0 0.00 0.00 0.00 30 1011.5
20260507033048 69 0.0 0.0 0.00 0.00 0.00 27 1011.2
20260507031547 70 0.0 0.0 0.00 0.00 0.00 25 1011.1
20260507030047 71 0.0 0.0 0.00 0.00 0.00 25 1010.9
20260507024545 72 0.0 0.0 0.00 0.00 0.00 25 1010.7
20260507023044 72 0.0 0.0 0.00 0.00 0.00 24 1010.7
20260507021546 73 0.0 0.0 0.00 0.00 0.00 24 1010.5
20260507020048 74 0.0 0.0 0.00 0.00 0.00 23 1010.5
20260507014557 75 0.0 0.0 0.00 0.00 0.00 23 1010.4
20260507013042 77 0.0 0.0 0.00 0.00 0.00 22 1010.5
20260507011542 78 0.0 0.0 0.00 0.00 0.00 22 1010.4
20260507010047 78 0.0 0.0 0.00 0.00 0.00 22 1010.4
20260507004542 79 0.0 0.0 0.00 0.00 0.00 21 1010.5
20260507003039 79 0.0 0.0 0.00 0.00 0.00 21 1010.4
20260507001537 80 0.0 0.0 0.00 0.00 0.00 21 1010.2
20260507000036 79 0.0 0.0 0.00 0.00 0.00 20 1010.3
20260506234535 79 0.0 0.0 0.00 0.00 0.00 21 1010.4
20260506233034 80 0.0 0.0 0.00 0.00 0.00 21 1010.3
20260506231533 80 0.0 0.0 0.00 0.00 0.00 22 1010.6
20260506230029 81 0.0 0.0 0.00 0.00 0.00 22 1010.6
20260506224530 79 0.0 0.0 0.00 0.00 0.00 23 1010.8
20260506223026 79 0.0 0.0 0.00 0.00 0.00 23 1010.8
20260506221524 80 0.0 0.0 0.00 0.00 0.00 22 1010.9
20260506220026 80 0.0 0.0 0.00 0.00 0.00 24 1011.1
20260506214517 79 0.0 0.0 0.00 0.00 0.00 25 1011.3
20260506213017 78 0.0 0.0 0.00 0.00 0.00 25 1011.5
20260506211514 78 0.0 0.0 0.00 0.00 0.00 27 1011.7
20260506210012 79 0.0 0.0 0.00 0.00 0.00 26 1011.8
20260506204511 77 0.0 0.0 0.00 0.00 0.00 26 1012.1
20260506203010 78 0.0 0.0 0.00 0.00 0.00 26 1012.2
20260506201509 77 0.0 0.0 0.00 0.00 0.00 29 1012.4
20260506200105 77 0.0 0.0 0.00 0.00 0.00 28 1012.5
20260506194504 75 0.0 0.0 0.00 0.00 0.00 30 1012.8
20260506193005 75 0.0 0.0 0.00 0.00 0.00 29 1012.9
20260506191508 75 0.0 0.0 0.00 0.00 0.00 29 1013.2
20260506190100 73 0.0 0.0 0.00 0.00 0.00 30 1013.4
20260506184602 74 0.0 0.0 0.00 0.00 0.00 30 1013.5
20260506183056 73 0.0 0.0 0.00 0.00 0.00 30 1013.6
20260506181555 72 0.0 0.0 0.00 0.00 0.00 29 1013.9
20260506180051 73 0.0 0.0 0.00 0.00 0.00 32 1013.9
20260506174548 71 0.0 0.0 0.00 0.00 0.00 33 1014.0
20260506173104 70 0.0 0.0 0.00 0.00 0.00 33 1014.0
20260506171553 70 0.0 0.0 0.00 0.00 0.00 36 1014.0
20260506170037 69 0.0 0.0 0.00 0.00 0.00 39 1014.1
20260506164535 68 0.0 0.0 0.00 0.00 0.00 42 1014.1
20260506163046 68 0.0 0.0 0.00 0.00 0.00 43 1013.9
20260506161527 66 0.0 0.0 0.00 0.00 0.00 47 1013.9
20260506160025 65 0.0 0.0 0.00 0.00 0.00 48 1014.0
20260506154527 64 0.0 0.0 0.00 0.00 0.00 50 1013.7
20260506153020 63 0.0 0.0 0.00 0.00 0.00 52 1013.9
20260506151517 62 0.0 0.0 0.00 0.00 0.00 55 1013.9
20260506150013 62 0.0 0.0 0.00 0.00 0.00 58 1013.9